STARLINK-34255

Last updated on Tue Sep 16 2025 00:02:07 GMT+0000 (Coordinated Universal Time)

1 65417U 25192P 25258.58341435 -.01479079 00000+0 -15590-1 0 9996 2 65417 53.1596 338.0946 0001221 69.8802 171.3196 15.66412083 3621
UTC large
Height (km)
Speed (km/s)
/
Latitude / Longitude
Inclination (degrees)
Orbital Period (minutes)
Azimuth
Elevation
Range (km)
Doppler Factor

Next 0 passes for location: London (51.5072 / 0.1276)

Sorry there are no passes over London.